EW9138 Weather Reports


Display with metric or nautical units.
time (UTC)temp
F
wind
direction
speed
MPH
gust
MPH
rain 1hr
in
rain 24hr
in
rain mn
in
humidity
%
barometer
mb
20260506225259 53 158 1.0 2.0 0.00 0.42 0.00 95 1012.8
20260506224800 53 159 1.0 2.0 0.00 0.42 0.00 95 1012.8
20260506224300 53 159 0.0 2.0 0.00 0.42 0.00 95 1012.9
20260506223759 53 295 0.0 2.0 0.00 0.42 0.00 95 1012.9
20260506223259 53 318 1.0 3.0 0.00 0.42 0.00 95 1012.9
20260506221759 53 274 0.0 0.0 0.00 0.42 0.00 95 1012.8
20260506221259 53 283 2.0 3.0 0.00 0.42 0.00 95 1012.7
20260506220844 53 283 2.0 5.0 0.00 0.42 0.00 95 1012.7
20260506220301 53 283 2.0 5.0 0.00 0.42 0.00 95 1012.7
20260506215800 54 296 2.0 3.0 0.00 0.42 0.42 95 1012.7
20260506215259 54 46 2.0 3.0 0.00 0.42 0.42 95 1012.7
20260506214759 54 60 2.0 5.0 0.00 0.42 0.42 95 1012.7
20260506214259 54 283 0.0 5.0 0.00 0.42 0.42 95 1012.7
20260506213759 54 24 0.0 3.0 0.00 0.42 0.42 95 1012.7
20260506213300 54 161 1.0 3.0 0.00 0.42 0.42 95 1012.7
20260506212759 54 59 1.0 3.0 0.00 0.42 0.42 95 1012.9
20260506212259 54 281 0.0 3.0 0.00 0.42 0.42 95 1012.9
20260506211759 54 182 0.0 3.0 0.00 0.42 0.42 95 1012.9
20260506211259 54 283 0.0 0.0 0.00 0.42 0.42 95 1012.6
20260506210800 54 281 0.0 0.0 0.00 0.42 0.42 95 1012.6
20260506210259 54 281 1.0 3.0 0.00 0.42 0.42 95 1012.6
20260506205759 54 281 1.0 3.0 0.00 0.42 0.42 95 1012.7
20260506205300 54 119 0.0 2.0 0.00 0.42 0.42 95 1012.7
20260506204759 55 261 0.0 2.0 0.00 0.42 0.42 95 1012.7
20260506204259 54 150 2.0 5.0 0.00 0.42 0.42 95 1012.5
20260506203759 55 148 2.0 5.0 0.00 0.42 0.42 95 1012.5
20260506203300 55 268 0.0 5.0 0.00 0.42 0.42 95 1012.5
20260506202759 55 0 0.0 2.0 0.00 0.42 0.42 95 1012.5
20260506202259 54 279 0.0 2.0 0.00 0.42 0.42 95 1012.5
20260506201801 54 340 0.0 0.0 0.00 0.42 0.42 95 1012.5
20260506201259 55 340 1.0 0.0 0.00 0.42 0.42 95 1012.5
20260506200759 54 340 1.0 2.0 0.00 0.42 0.42 95 1012.5
20260506200259 54 268 2.0 5.0 0.00 0.42 0.42 95 1012.5
20260506195759 54 268 2.0 5.0 0.00 0.42 0.42 95 1012.4
20260506195300 54 253 0.0 5.0 0.00 0.42 0.42 95 1012.4
20260506194759 54 279 0.0 5.0 0.00 0.42 0.42 95 1012.4
20260506194259 54 66 0.0 0.0 0.00 0.42 0.42 94 1012.2
20260506193759 54 66 0.0 0.0 0.00 0.42 0.42 94 1012.2
20260506193259 55 66 0.0 0.0 0.00 0.42 0.42 94 1012.2
20260506192759 55 66 0.0 0.0 0.00 0.42 0.42 94 1011.9
20260506192300 55 286 0.0 0.0 0.00 0.42 0.42 94 1011.9
20260506191300 55 287 0.0 0.0 0.00 0.42 0.42 94 1012.0
20260506190759 55 287 0.0 0.0 0.00 0.42 0.42 94 1012.0
20260506190259 55 287 0.0 0.0 0.00 0.42 0.42 94 1012.0
20260506185759 55 287 0.0 0.0 0.00 0.42 0.42 94 1011.9
20260506185300 56 287 0.0 0.0 0.00 0.42 0.42 94 1011.9
20260506184759 56 287 0.0 0.0 0.00 0.42 0.42 94 1011.9
20260506184300 56 287 0.0 0.0 0.00 0.42 0.42 94 1011.8
20260506183800 56 287 0.0 0.0 0.00 0.42 0.42 94 1011.8
20260506182800 56 287 0.0 0.0 0.00 0.42 0.42 94 1011.6
20260506182300 56 287 0.0 0.0 0.00 0.42 0.42 94 1011.6
20260506181800 56 287 0.0 0.0 0.00 0.42 0.42 94 1011.6
20260506181300 56 287 0.0 0.0 0.00 0.42 0.42 94 1011.4
20260506180300 56 287 0.0 0.0 0.00 0.42 0.42 93 1011.4
20260506175759 56 3 0.0 0.0 0.00 0.42 0.42 93 1011.4
20260506175300 56 2 0.0 0.0 0.00 0.43 0.42 93 1011.4
20260506174800 56 3 0.0 0.0 0.00 0.43 0.42 93 1011.4
20260506174300 57 5 0.0 0.0 0.00 0.43 0.42 94 1011.3
20260506173300 57 278 0.0 0.0 0.00 0.44 0.42 94 1011.3
20260506172759 57 358 0.0 1.0 0.00 0.44 0.42 94 1011.0
20260506172259 57 0 0.0 1.0 0.00 0.44 0.42 94 1011.0
20260506171759 57 272 0.0 0.0 0.00 0.44 0.42 94 1011.0
20260506171300 57 254 0.0 0.0 0.00 0.45 0.42 94 1010.9
20260506170800 57 254 0.0 0.0 0.00 0.45 0.42 94 1010.9
20260506170259 57 254 0.0 0.0 0.00 0.45 0.42 94 1010.9
20260506165759 57 254 0.0 0.0 0.00 0.45 0.42 94 1010.8
20260506165259 57 254 0.0 0.0 0.00 0.45 0.42 94 1010.8
20260506164800 57 279 0.0 0.0 0.00 0.45 0.42 94 1010.8
20260506164259 57 281 0.0 0.0 0.00 0.45 0.42 94 1010.7
20260506163800 57 281 0.0 2.0 0.00 0.46 0.42 94 1010.7
20260506163300 57 281 1.0 3.0 0.00 0.46 0.42 94 1010.7
20260506162759 57 281 1.0 3.0 0.00 0.46 0.42 94 1011.0
20260506162259 57 212 1.0 3.0 0.00 0.46 0.42 94 1011.0
20260506161759 57 209 1.0 3.0 0.00 0.46 0.42 94 1011.0
20260506161259 57 143 1.0 3.0 0.00 0.46 0.42 94 1010.9
20260506160800 57 130 1.0 5.0 0.00 0.46 0.42 94 1010.9
20260506160300 57 127 1.0 5.0 0.00 0.46 0.42 95 1010.9
20260506155800 57 114 1.0 3.0 0.00 0.48 0.42 95 1010.9
20260506155300 57 179 1.0 5.0 0.00 0.48 0.42 95 1010.9
20260506154800 57 178 1.0 5.0 0.00 0.48 0.42 95 1010.9
20260506154300 57 272 1.0 3.0 0.00 0.48 0.42 95 1010.9
20260506153259 57 217 0.0 3.0 0.00 0.48 0.42 95 1010.9
20260506152800 57 220 0.0 0.0 0.00 0.48 0.42 96 1011.2
20260506152300 56 219 0.0 0.0 0.00 0.48 0.42 95 1011.2
20260506151800 56 220 0.0 0.0 0.00 0.48 0.42 95 1011.2
20260506151259 56 219 0.0 0.0 0.00 0.48 0.42 95 1011.1
20260506150759 56 218 0.0 0.0 0.00 0.49 0.42 95 1011.1
20260506150304 56 218 0.0 2.0 0.00 0.49 0.42 95 1011.1
20260506145300 56 218 0.0 3.0 0.00 0.49 0.42 94 1011.2
20260506144800 56 20 0.0 2.0 0.00 0.49 0.42 94 1011.2
20260506142801 56 245 2.0 5.0 0.00 0.49 0.42 94 1011.2
20260506142300 57 218 1.0 5.0 0.01 0.49 0.42 95 1011.2
20260506141800 57 222 1.0 5.0 0.01 0.49 0.42 96 1011.2
20260506141300 56 192 2.0 5.0 0.01 0.49 0.42 96 1011.2
20260506140800 56 192 2.0 5.0 0.02 0.49 0.42 96 1011.2
20260506140300 56 259 2.0 6.0 0.02 0.49 0.42 95 1011.2
20260506135800 56 156 2.0 9.0 0.03 0.49 0.42 95 1011.1
20260506135301 56 170 2.0 9.0 0.05 0.49 0.42 95 1011.1
20260506134759 56 134 2.0 8.0 0.07 0.49 0.42 96 1011.1
20260506134300 56 132 2.0 5.0 0.07 0.49 0.42 96 1011.5
20260506133800 56 171 2.0 3.0 0.07 0.49 0.42 95 1011.5
20260506133300 56 168 2.0 3.0 0.07 0.49 0.42 96 1011.5
20260506132800 56 168 2.0 3.0 0.07 0.49 0.42 95 1011.6
20260506132301 56 251 2.0 5.0 0.07 0.49 0.41 96 1011.6
20260506131259 55 145 1.0 5.0 0.08 0.49 0.41 95 1011.8
20260506130800 55 190 1.0 5.0 0.07 0.48 0.40 95 1011.8
20260506125800 56 75 0.0 3.0 0.06 0.48 0.39 95 1011.7
20260506124801 56 52 1.0 3.0 0.02 0.45 0.35 95 1011.7
20260506124300 56 52 0.0 2.0 0.02 0.45 0.35 95 1011.5
20260506123800 56 52 0.0 2.0 0.02 0.45 0.35 95 1011.5
20260506123300 56 52 1.0 3.0 0.02 0.45 0.35 95 1011.5
20260506122801 56 52 1.0 3.0 0.02 0.46 0.35 95 1011.7
20260506122300 56 69 0.0 2.0 0.01 0.45 0.34 95 1011.7
20260506121759 56 46 0.0 2.0 0.00 0.44 0.33 95 1011.7
20260506121301 56 43 1.0 2.0 0.00 0.44 0.33 95 1011.7
20260506120759 56 42 1.0 3.0 0.01 0.44 0.33 95 1011.7
20260506120300 56 80 1.0 3.0 0.01 0.44 0.33 95 1011.7
20260506115801 56 123 1.0 3.0 0.02 0.44 0.33 95 1011.8
20260506115300 56 79 0.0 3.0 0.02 0.44 0.33 96 1011.8
20260506114800 56 79 0.0 2.0 0.02 0.44 0.33 96 1011.8
20260506114301 56 79 0.0 2.0 0.02 0.44 0.33 96 1012.0
20260506113800 56 79 0.0 3.0 0.02 0.44 0.33 96 1012.0
20260506113301 56 79 0.0 3.0 0.02 0.44 0.33 96 1012.0
20260506112800 56 111 0.0 2.0 0.02 0.44 0.33 95 1012.1
20260506112301 56 111 0.0 2.0 0.02 0.44 0.33 96 1012.1
20260506111800 56 111 0.0 2.0 0.02 0.44 0.33 96 1012.1
20260506111300 56 111 0.0 2.0 0.02 0.44 0.33 96 1012.2
20260506105800 56 128 0.0 3.0 0.00 0.43 0.31 96 1012.3
20260506105300 56 178 0.0 2.0 0.00 0.43 0.31 96 1012.3
20260506104800 56 178 0.0 2.0 0.00 0.44 0.31 97 1012.3
20260506104300 56 217 0.0 0.0 0.00 0.44 0.31 97 1012.4
20260506103800 55 224 0.0 2.0 0.00 0.44 0.31 97 1012.4
20260506103300 55 224 2.0 2.0 0.00 0.46 0.31 96 1012.4
20260506102800 55 224 2.0 5.0 0.00 0.46 0.31 96 1012.5
20260506101800 55 238 1.0 5.0 0.00 0.48 0.31 96 1012.5
20260506100800 55 169 0.0 2.0 0.00 0.48 0.31 96 1012.4
20260506100303 55 169 0.0 3.0 0.00 0.50 0.31 96 1012.4
20260506095800 56 169 0.0 3.0 0.00 0.50 0.31 97 1012.6
20260506095301 56 81 1.0 2.0 0.00 0.52 0.31 97 1012.6
20260506094800 55 78 1.0 3.0 0.00 0.52 0.31 97 1012.6
20260506093800 55 79 1.0 5.0 0.00 0.52 0.31 97 1012.5
20260506091300 55 65 2.0 5.0 0.02 0.54 0.31 97 1012.4
20260506090800 55 64 2.0 5.0 0.02 0.54 0.31 97 1012.4
20260506090301 55 75 1.0 5.0 0.03 0.54 0.31 97 1012.4
20260506085800 55 254 1.0 2.0 0.03 0.54 0.31 97 1012.3
20260506085300 55 254 0.0 2.0 0.04 0.54 0.31 97 1012.3
20260506084800 55 254 0.0 2.0 0.04 0.54 0.31 97 1012.3
20260506084300 55 254 0.0 2.0 0.05 0.56 0.31 97 1012.3
20260506083800 54 254 0.0 2.0 0.06 0.56 0.31 97 1012.3
20260506083300 54 254 0.0 2.0 0.06 0.56 0.31 97 1012.3
20260506082801 54 254 0.0 2.0 0.07 0.56 0.31 97 1012.4
20260506082301 54 254 0.0 1.0 0.07 0.56 0.31 97 1012.4
20260506081800 53 254 0.0 1.0 0.07 0.57 0.31 97 1012.4
20260506081300 53 256 2.0 2.0 0.06 0.56 0.29 97 1012.4
20260506080300 53 256 0.0 3.0 0.07 0.55 0.28 97 1012.4
20260506073301 53 188 0.0 5.0 0.12 0.52 0.25 97 1012.6
20260506072800 53 186 0.0 3.0 0.13 0.50 0.24 97 1012.5
20260506072300 53 247 0.0 2.0 0.14 0.50 0.24 97 1012.5
20260506071801 53 248 0.0 2.0 0.16 0.50 0.24 96 1012.5
20260506071301 53 248 0.0 2.0 0.15 0.49 0.23 96 1012.7
20260506070800 53 248 0.0 2.0 0.15 0.48 0.22 96 1012.7
20260506070300 53 248 0.0 0.0 0.16 0.47 0.21 96 1012.7
20260506062300 53 79 0.0 2.0 0.10 0.36 0.10 96 1012.5
20260506061801 53 78 0.0 2.0 0.08 0.34 0.08 96 1012.5
20260506061301 53 78 0.0 2.0 0.08 0.34 0.08 96 1012.6
20260506060800 52 78 0.0 2.0 0.07 0.33 0.07 96 1012.6
20260506060300 52 273 0.0 0.0 0.05 0.31 0.05 96 1012.6
20260506050800 52 281 0.0 0.0 0.00 0.26 0.00 96 1012.6
20260506050301 52 281 2.0 3.0 0.00 0.26 0.00 96 1012.6
20260506044300 52 261 1.0 3.0 0.00 0.26 0.00 96 1012.4
20260506043801 52 261 1.0 3.0 0.00 0.26 0.00 96 1012.4
20260506043300 52 288 0.0 3.0 0.00 0.26 0.00 96 1012.4
20260506042801 52 16 0.0 2.0 0.00 0.26 0.00 96 1012.5
20260506041301 52 278 0.0 5.0 0.00 0.26 0.00 96 1012.8
20260506040801 52 311 0.0 5.0 0.00 0.26 0.00 96 1012.8
20260506040300 52 339 0.0 1.0 0.00 0.26 0.00 96 1012.8
20260506035301 52 339 1.0 2.0 0.00 0.26 0.00 96 1012.9
20260506034301 52 262 0.0 2.0 0.00 0.26 0.00 96 1013.0
20260506033801 52 262 0.0 2.0 0.00 0.26 0.00 96 1013.0
20260506032801 52 192 0.0 1.0 0.00 0.26 0.00 96 1013.1
20260506032301 52 192 0.0 1.0 0.00 0.26 0.00 96 1013.1
20260506031801 52 192 0.0 0.0 0.00 0.26 0.00 96 1013.1
20260506031301 52 192 0.0 3.0 0.00 0.26 0.00 96 1013.4
20260506030801 52 192 0.0 3.0 0.00 0.26 0.00 96 1013.4
20260506030301 52 3 0.0 2.0 0.00 0.26 0.00 96 1013.4
20260506025801 52 337 0.0 2.0 0.00 0.26 0.00 96 1013.2
20260506025305 52 337 0.0 2.0 0.00 0.26 0.00 96 1013.2
20260506023801 52 337 0.0 2.0 0.00 0.26 0.00 96 1013.3
20260506022801 52 340 0.0 2.0 0.00 0.26 0.00 96 1013.2
20260506022300 52 341 0.0 2.0 0.00 0.26 0.00 96 1013.2
20260506021801 52 341 0.0 3.0 0.00 0.26 0.00 96 1013.2
20260506021301 52 341 0.0 3.0 0.00 0.26 0.00 96 1013.4
20260506020801 52 306 0.0 2.0 0.00 0.26 0.00 96 1013.4
20260506020301 52 8 0.0 2.0 0.00 0.26 0.00 96 1013.4
20260506015301 52 17 0.0 2.0 0.00 0.26 0.00 96 1013.5
20260506014800 52 17 0.0 2.0 0.00 0.26 0.00 96 1013.5
20260506014300 52 17 0.0 2.0 0.00 0.26 0.00 96 1013.5
20260506013801 52 17 0.0 3.0 0.00 0.26 0.00 96 1013.5
20260506013301 52 17 0.0 3.0 0.00 0.26 0.00 96 1013.5
20260506012301 52 24 0.0 2.0 0.00 0.26 0.00 96 1013.5
20260506011801 52 24 0.0 2.0 0.00 0.26 0.00 96 1013.5
20260506011301 52 284 0.0 1.0 0.00 0.26 0.00 96 1013.5
20260506010301 52 280 1.0 3.0 0.00 0.26 0.00 96 1013.5
20260506005801 52 280 1.0 3.0 0.00 0.26 0.00 96 1013.5
20260506005301 52 280 1.0 3.0 0.00 0.26 0.00 96 1013.5
20260506004801 53 280 1.0 3.0 0.00 0.26 0.00 96 1013.5
20260506004301 53 282 0.0 2.0 0.00 0.26 0.00 96 1013.7
20260506003801 53 282 0.0 2.0 0.00 0.26 0.00 96 1013.7
20260506003301 53 282 0.0 2.0 0.00 0.26 0.00 96 1013.7
20260506002801 53 282 0.0 1.0 0.00 0.26 0.00 96 1013.7
20260506002301 53 282 0.0 1.0 0.00 0.26 0.00 96 1013.7
20260506001301 53 282 0.0 0.0 0.00 0.26 0.00 96 1013.8
20260506000801 53 282 0.0 2.0 0.00 0.26 0.00 96 1013.8
20260506000302 53 282 1.0 3.0 0.00 0.26 0.00 96 1013.8
20260505235801 53 282 1.0 3.0 0.00 0.26 0.00 96 1013.9
20260505235301 53 282 0.0 2.0 0.00 0.26 0.00 96 1013.9
20260505234302 53 0 0.0 1.0 0.00 0.26 0.00 96 1013.9
20260505233801 53 0 0.0 1.0 0.00 0.26 0.00 96 1013.9
20260505233301 53 1 0.0 0.0 0.00 0.26 0.00 96 1013.9
20260505232801 53 1 0.0 0.0 0.00 0.26 0.00 96 1014.0
20260505232305 53 1 0.0 2.0 0.00 0.26 0.00 96 1014.0
20260505231802 53 1 0.0 2.0 0.00 0.26 0.00 96 1014.0
20260505231301 53 1 0.0 2.0 0.00 0.26 0.00 96 1014.1
20260505230301 53 274 0.0 2.0 0.00 0.26 0.00 96 1014.1
20260505225801 53 274 0.0 0.0 0.00 0.26 0.00 96 1014.3